Dubrovnik, Croatia

6:26 AM CET on December 11, 2018 (GMT +0100)
Cilipi

Weather History for LDDU - December, 2017

Change the Weather History Date:

Thursday, December 14, 2017

  Actual Average (LYTV) Record (LYTV)
Temperature  
Mean Temperature 48 °F -  
Max Temperature 54 °F 54 °F 64 °F (2005)
Min Temperature 43 °F 37 °F 29 °F (2015)
Degree Days  
Heating Degree Days 16    
Moisture  
Dew Point 46 °F    
Average Humidity 88    
Maximum Humidity 100    
Minimum Humidity 57    
Precipitation  
Precipitation 0.08 in - - ()
Sea Level Pressure  
Sea Level Pressure 29.98 in    
Wind  
Wind Speed 6 mph ()    
Max Wind Speed 15 mph    
Max Gust Speed -    
Visibility 7.1 miles    
Events Fog , Rain    
Averages and records for this station are not official NWS values.
T = Trace of Precipitation, MM = Missing Value Source: Averaged Metar Reports

Daily Weather History Graph

Daily Weather History Graph

Search for Another Location

Airport or City:

Astronomy

Dec. 14, 2017 Rise Set
Actual Time 7:09 AM CET 4:14 PM CET
Civil Twilight 6:37 AM CET 4:46 PM CET
Nautical Twilight 6:01 AM CET 5:21 PM CET
Astronomical Twilight 5:27 AM CET 5:56 PM CET
Moon 3:11 AM CET (12/14) 2:17 PM CET (12/14)
Length of Visible Light 10h 09m
Length of Day
9h 05m
Waning Crescent, 13% of the Moon is Illuminated
Dec 14
Waning Crescent
Dec 18
New
Dec 26
First Quarter
Jan 2
Full
Jan 8
Last Quarter

Hourly Weather History & Observations

Time (CET) Temp. Windchill Dew Point Humidity Pressure Visibility Wind Dir Wind Speed Gust Speed Precip Events Conditions
12:00 AM 44.6 °F - 44.6 °F 100% 30.01 in - Calm Calm - N/A   Clear
12:30 AM 46.4 °F - 44.6 °F 93% 30.01 in 6.2 mi Variable 2.3 mph - N/A   Mostly Cloudy
1:00 AM 45 °F - 44 °F 97% 30.02 in 12 mi East 4.5 mph - -   Partly Cloudy
1:00 AM 44.6 °F 41.4 °F 42.8 °F 93% 30.01 in - East 5.8 mph - N/A   Clear
1:30 AM 44.6 °F 41.4 °F 44.6 °F 100% 30.01 in 0.3 mi Variable 5.8 mph - N/A Fog Fog
2:00 AM 44.6 °F 42.2 °F 44.6 °F 100% 30.01 in 6.2 mi West 4.6 mph - N/A Rain Light Rain
2:30 AM 48.2 °F - 44.6 °F 87% 30.01 in 6.2 mi NE 3.5 mph - N/A Rain Light Rain
3:00 AM 46.4 °F 45.2 °F 46.4 °F 100% 30.01 in 6.2 mi East 3.5 mph - N/A Rain Light Rain
3:30 AM 44.6 °F 39.2 °F 44.6 °F 100% 29.98 in 6.2 mi East 10.4 mph - N/A Rain Light Rain
4:00 AM 47 °F - 45 °F 91% 30.00 in 12 mi ENE 8.9 mph - - Rain Light Rain
4:00 AM 46.4 °F 42.4 °F 46.4 °F 100% 29.98 in 6.2 mi ENE 8.1 mph - N/A   Mostly Cloudy
4:30 AM 48.2 °F - 44.6 °F 87% 29.98 in 6.2 mi Variable 2.3 mph - N/A   Mostly Cloudy
5:00 AM 48.2 °F - 41.0 °F 76% 29.98 in 6.2 mi North 4.6 mph - N/A   Scattered Clouds
5:30 AM 46.4 °F 42.9 °F 44.6 °F 93% 29.98 in 6.2 mi NNW 6.9 mph - N/A   Mostly Cloudy
6:00 AM 50.0 °F - 39.2 °F 66% 29.98 in 6.2 mi North 3.5 mph - N/A   Scattered Clouds
6:30 AM 48.2 °F - 41.0 °F 76% 29.98 in 6.2 mi NNE 3.5 mph - N/A   Mostly Cloudy
7:00 AM 49 °F - 41 °F 66% 30.01 in 19 mi NNE 4.5 mph - -   Partly Cloudy
7:00 AM 48.2 °F - 41.0 °F 76% 29.98 in 6.2 mi NNE 3.5 mph - N/A   Mostly Cloudy
7:30 AM 46.4 °F 42.9 °F 46.4 °F 100% 30.01 in 6.2 mi East 6.9 mph - N/A   Mostly Cloudy
8:00 AM 48.2 °F - 44.6 °F 87% 30.01 in 6.2 mi East 9.2 mph - N/A   Scattered Clouds
8:30 AM 46.4 °F 41.9 °F 46.4 °F 100% 29.98 in 6.2 mi East 9.2 mph - N/A   Mostly Cloudy
9:00 AM 48.2 °F - 46.4 °F 93% 30.01 in 6.2 mi East 6.9 mph - N/A   Scattered Clouds
9:30 AM 50.0 °F - 46.4 °F 87% 30.01 in 6.2 mi East 8.1 mph - N/A   Scattered Clouds
10:00 AM 51 °F - 47 °F 80% 30.02 in 12 mi East 8.9 mph - -   Mostly Cloudy
10:00 AM 50.0 °F - 46.4 °F 87% 30.01 in 6.2 mi East 8.1 mph - N/A   Scattered Clouds
10:30 AM 51.8 °F - 46.4 °F 82% 30.01 in 6.2 mi East 6.9 mph - N/A   Mostly Cloudy
11:00 AM 51.8 °F - 48.2 °F 88% 30.01 in 6.2 mi East 9.2 mph - N/A   Mostly Cloudy
11:30 AM 50.0 °F - 50.0 °F 100% 30.01 in 6.2 mi East 9.2 mph - N/A   Mostly Cloudy
12:00 PM 53.6 °F - 50.0 °F 88% 29.98 in 6.2 mi ESE 9.2 mph - N/A   Scattered Clouds
12:30 PM 53.6 °F - 42.8 °F 67% 29.98 in 6.2 mi SSE 8.1 mph - N/A   Mostly Cloudy
1:00 PM 53 °F - 42 °F 57% 29.99 in 12 mi SSE 8.9 mph - -   Overcast
1:00 PM 53.6 °F - 41.0 °F 62% 29.98 in 6.2 mi SSE 9.2 mph - N/A   Mostly Cloudy
1:30 PM 53.6 °F - 42.8 °F 67% 29.98 in 6.2 mi SSE 9.2 mph - N/A   Mostly Cloudy
2:00 PM 53.6 °F - 42.8 °F 67% 29.98 in 6.2 mi SE 9.2 mph - N/A   Mostly Cloudy
2:30 PM 53.6 °F - 44.6 °F 72% 29.95 in 6.2 mi ESE 11.5 mph - N/A   Mostly Cloudy
3:00 PM 51.8 °F - 46.4 °F 82% 29.98 in 6.2 mi ESE 8.1 mph - N/A   Mostly Cloudy
4:00 PM 51 °F - 47 °F 80% 29.99 in 12 mi ESE 11.2 mph - -   Overcast
4:00 PM 51.8 °F - 46.4 °F 82% 29.98 in 6.2 mi ESE 11.5 mph - N/A   Mostly Cloudy
4:30 PM 51.8 °F - 46.4 °F 82% 29.95 in 6.2 mi East 12.7 mph - N/A   Mostly Cloudy
5:00 PM 50.0 °F - 48.2 °F 94% 29.95 in 6.2 mi ESE 11.5 mph - N/A Rain Light Rain
5:30 PM 48.2 °F - 48.2 °F 100% 29.95 in 6.2 mi East 13.8 mph - N/A   Mostly Cloudy
6:00 PM 50.0 °F - 48.2 °F 94% 29.95 in 6.2 mi ESE 12.7 mph - N/A   Mostly Cloudy
6:30 PM 50.0 °F - 50.0 °F 100% 29.95 in 6.2 mi East 11.5 mph - N/A Rain Light Rain
7:00 PM 50 °F - 49 °F 95% 29.98 in 12 mi East 13.4 mph - - Rain Light Rain
7:00 PM 50.0 °F - 50.0 °F 100% 29.98 in 6.2 mi East 13.8 mph - N/A   Mostly Cloudy
7:30 PM 50.0 °F - 48.2 °F 94% 29.98 in 6.2 mi East 15.0 mph - N/A   Mostly Cloudy
8:00 PM 51.8 °F - 48.2 °F 88% 29.95 in 6.2 mi ESE 13.8 mph - N/A   Mostly Cloudy
8:30 PM 50.0 °F - 50.0 °F 100% 29.95 in 6.2 mi East 10.4 mph - N/A   Mostly Cloudy
9:00 PM 51.8 °F - 50.0 °F 94% 29.95 in 6.2 mi East 15.0 mph - N/A   Mostly Cloudy
9:30 PM 51.8 °F - 50.0 °F 94% 29.95 in 6.2 mi East 13.8 mph - N/A   Mostly Cloudy
10:00 PM 51 °F - 50 °F 94% 29.95 in 12 mi East 11.2 mph - -   Partly Cloudy
10:00 PM 51.8 °F - 50.0 °F 94% 29.95 in 6.2 mi East 10.4 mph - N/A   Mostly Cloudy
10:30 PM 51.8 °F - 50.0 °F 94% 29.92 in 6.2 mi East 10.4 mph - N/A   Mostly Cloudy
11:00 PM 51.8 °F - 50.0 °F 94% 29.92 in 6.2 mi East 11.5 mph - N/A   Mostly Cloudy
11:30 PM 53.6 °F - 50.0 °F 88% 29.92 in 6.2 mi East 12.7 mph - N/A   Mostly Cloudy